This is the latest recevied weather packets stored in our database for station/object JA0BES-13. If no packets are shown the sender has not sent any weather packets the latest 10 day(s).
| Time | Temp. | Humidity | Pressure | Rain* | Wind** | Luminosity | Snow |
|---|---|---|---|---|---|---|---|
| 1777689745 | 22.78° C | 47% | 1006.3 hPa | 3.3 mm | - | - | - |
| 1777689145 | 22.78° C | 47% | 1006.6 hPa | 3.3 mm | - | - | - |
| 1777674134 | 13.89° C | 86% | 1004.7 hPa | 3.3 mm | - | - | - |
| 1777673534 | 13.33° C | 89% | 1004.8 hPa | 3.3 mm | - | - | - |
| 1777672933 | 13.33° C | 89% | 1004.8 hPa | 3.3 mm | - | - | - |
| 1777672333 | 13.33° C | 95% | 1004.5 hPa | 3.3 mm | - | - | - |
| 1777671732 | 12.78° C | 98% | 1004.3 hPa | 3.3 mm | - | - | - |
| 1777671132 | 11.67° C | 100% | 1004 hPa | 3.3 mm | - | - | - |
| 1777670531 | 11.11° C | 100% | 1004 hPa | 3.3 mm | - | - | - |
| 1777669331 | 10.56° C | 100% | 1003.7 hPa | 3.3 mm | - | - | - |
| 1777640514 | 11.67° C | 100% | 995.3 hPa | 19.56 mm | - | - | - |
| 1777639914 | 11.67° C | 100% | 995.1 hPa | 19.56 mm | - | - | - |
| 1777638713 | 11.67° C | 100% | 994.9 hPa | 19.56 mm | - | - | - |
| 1777638112 | 11.67° C | 100% | 994.6 hPa | 19.56 mm | - | - | - |
| 1777636912 | 11.67° C | 100% | 994.4 hPa | 19.56 mm | - | - | - |
| 1777636312 | 12.22° C | 100% | 994.6 hPa | 19.56 mm | - | - | - |
| 1777635711 | 12.22° C | 100% | 994.5 hPa | 19.56 mm | - | - | - |
| 1777635111 | 12.22° C | 100% | 994.4 hPa | 19.56 mm | - | - | - |
| 1777634510 | 12.22° C | 100% | 994.4 hPa | 19.56 mm | - | - | - |
| 1777633910 | 12.22° C | 100% | 994.3 hPa | 19.56 mm | - | - | - |
| 1777633309 | 12.22° C | 100% | 994.1 hPa | 19.56 mm | - | - | - |
| 1777632709 | 12.78° C | 100% | 993.9 hPa | 19.56 mm | - | - | - |
| 1777632109 | 12.78° C | 100% | 994 hPa | 19.56 mm | - | - | - |
| 1777631509 | 12.78° C | 100% | 993.8 hPa | 19.56 mm | - | - | - |
| 1777630908 | 12.78° C | 100% | 993.5 hPa | 19.56 mm | - | - | - |
* Rain since midnight (hover to see other rain measurements)
** Current wind speed in m/s (hover to see current wind gust speed)